Theta_e
353 353 351 347 346 344 341 339 336 334 330 327 324 323 325 327 327 328 326 324 321 317 317 318 319 320 320 321 323 324 325 327 328 328 326 326 326 325 325 326 328 330 334
352 350 346 343 341 340 337 335 333 330 327 322 318 322 325 326 327 327 325 323 317 314 317 318 319 319 319 320 322 322 322 324 325 325 324 322 322 319 321 321 322 328 331
348 346 341 339 337 336 334 331 328 325 322 315 315 323 324 322 319 321 322 317 312 315 316 317 318 319 319 320 320 320 320 320 321 321 321 320 316 314 315 315 317 322 329
345 342 339 336 335 333 331 328 325 322 317 309 318 323 323 320 318 319 318 318 314 314 315 316 318 319 320 320 319 319 318 318 319 318 318 315 314 315 313 313 313 317 325
341 340 338 336 333 330 327 325 322 317 312 312 319 321 322 321 316 318 318 317 316 315 315 315 315 314 314 317 317 317 318 316 315 315 315 315 314 315 314 312 312 317 322
346 341 338 334 332 328 326 323 319 316 309 315 318 319 321 320 316 313 315 315 313 314 314 314 314 313 312 311 312 312 314 318 318 316 315 315 315 315 313 313 311 313 315
340 334 334 332 329 327 324 321 317 313 306 313 316 316 317 320 319 318 315 316 314 314 314 314 313 313 314 315 312 311 310 310 312 317 315 315 316 317 316 313 311 311 311
338 333 330 329 327 325 322 318 311 306 310 312 313 313 314 315 314 318 319 320 316 314 314 315 315 315 314 316 315 314 314 314 314 313 314 314 313 316 317 315 314 311 310
337 332 330 328 326 324 318 312 311 313 315 315 314 312 314 314 310 310 317 322 321 318 315 312 311 315 311 311 316 315 314 313 311 310 309 309 311 311 310 312 311 310 310
335 331 329 328 326 323 318 315 316 317 317 315 316 316 312 313 311 311 315 318 320 319 319 315 312 312 311 311 313 317 315 314 314 314 312 312 311 311 309 312 312 311 310
333 330 329 327 326 324 321 319 319 319 318 318 318 318 319 318 316 311 311 315 315 316 315 315 314 311 311 311 311 314 316 314 314 314 312 313 312 310 310 313 312 312 310
331 328 328 326 325 323 320 319 319 319 319 319 321 321 321 322 319 319 318 313 313 314 314 314 314 311 311 311 311 314 313 312 314 314 313 313 313 312 310 311 310 308 310
328 329 327 325 323 321 319 319 319 320 319 321 321 320 320 321 322 320 320 320 318 315 315 314 312 312 312 312 312 311 312 315 315 313 313 312 313 312 309 311 311 308 309
327 327 325 325 322 320 319 318 317 319 321 321 322 321 321 322 320 321 322 321 321 319 318 318 315 313 312 313 314 315 314 315 316 315 314 313 313 312 312 310 309 308 307
327 326 326 324 321 320 319 318 319 320 321 321 321 322 323 320 319 318 321 323 323 322 321 320 316 315 315 315 315 315 316 315 315 315 315 313 313 312 311 310 308 307 306
327 325 324 323 321 319 319 319 319 320 319 320 320 321 321 317 312 312 313 315 317 318 319 318 317 316 315 315 315 315 317 316 317 316 315 314 313 313 311 310 308 306 305
327 325 324 323 321 319 319 319 319 319 319 319 319 320 318 318 317 315 313 313 313 314 318 318 318 317 316 316 315 316 317 317 317 316 315 314 313 312 308 308 307 305 304
327 324 324 323 321 320 320 320 319 320 321 321 319 318 318 318 318 318 318 317 313 312 314 314 316 316 315 315 316 317 317 318 317 316 315 314 312 310 309 307 306 305 304
327 324 324 323 321 320 320 321 321 321 321 320 321 320 319 318 319 317 317 318 318 318 315 315 315 315 315 315 317 318 318 317 316 315 314 312 310 308 307 306 305 304 302
326 325 324 323 321 320 321 321 321 321 320 321 321 321 322 319 319 320 317 318 317 317 316 316 316 316 316 318 318 318 316 313 312 312 311 309 307 306 305 305 305 305 305
324 323 323 322 321 321 321 321 320 321 322 322 321 321 319 320 321 321 321 317 316 317 316 316 316 317 318 318 316 313 311 309 309 309 308 306 306 306 305 306 305 305 304
323 323 321 320 321 321 321 321 322 322 321 321 321 320 318 318 319 320 320 317 317 316 316 317 317 316 313 311 310 309 308 307 307 307 306 306 306 306 306 305 305 304 304
322 320 319 320 321 321 319 319 320 320 320 320 319 319 318 320 320 320 318 316 315 314 314 313 312 310 309 308 308 307 306 306 306 306 306 306 306 306 305 305 304 304 302
320 320 322 322 321 320 319 319 319 319 319 319 317 318 319 318 317 316 315 313 312 312 311 310 309 308 308 307 306 306 306 306 306 306 306 306 306 306 305 304 304 302 302
321 321 321 321 320 320 320 320 321 321 319 319 321 317 315 315 314 313 312 311 311 311 310 309 308 308 307 307 306 306 305 304 304 305 305 305 305 304 304 303 302 301 301
322 321 321 321 321 322 323 323 322 322 322 320 317 316 315 314 313 312 312 311 311 310 309 308 308 307 307 306 305 305 303 302 303 304 304 304 303 303 302 301 301 301 300
Wind_Speed
21 21 20 17 17 17 15 14 13 12 10 7 5 5 7 7 6 8 9 7 7 7 7 7 8 7 6 6 6 6 5 3 4 4 6 9 10 13 12 11 10 9 7
20 18 17 17 18 18 15 13 13 11 9 8 8 8 9 10 9 8 7 7 7 8 8 8 8 8 8 7 7 8 8 6 3 5 7 9 10 14 13 12 10 7 6
21 20 18 17 16 16 15 13 13 14 11 9 9 10 10 9 8 8 9 9 9 9 9 9 9 9 9 8 7 7 8 7 6 5 6 8 10 14 14 14 11 8 5
21 19 19 19 18 15 15 15 14 13 12 11 12 12 10 9 10 11 11 9 9 8 9 9 9 9 9 8 9 8 7 7 7 7 7 8 10 12 14 17 15 11 7
30 26 21 19 17 17 15 15 14 12 11 11 14 13 11 10 9 10 9 9 9 8 8 9 9 9 8 7 7 7 7 7 7 7 8 8 11 13 16 16 16 12 5
47 48 38 27 25 23 20 18 16 13 13 14 14 13 11 8 11 10 8 8 9 8 7 7 7 7 7 6 5 5 5 4 4 7 7 8 9 11 13 15 15 15 10
28 30 38 38 31 26 21 19 17 16 14 15 14 13 11 9 10 11 9 6 6 7 5 5 4 4 5 5 4 5 6 8 6 4 7 9 8 9 9 11 13 13 11
27 24 26 27 34 28 22 19 19 17 15 15 14 13 11 7 7 9 11 7 6 5 4 2 2 3 3 4 3 2 3 4 4 5 5 7 8 7 6 7 7 12 8
26 27 28 28 28 27 23 21 19 17 14 13 13 12 9 9 7 5 9 9 8 7 5 3 2 2 2 3 2 2 2 2 3 5 7 9 9 6 7 8 9 10 11
25 25 27 27 31 27 24 23 20 17 15 13 12 11 11 9 8 5 7 7 8 7 7 6 5 5 4 5 5 6 6 5 4 4 4 7 9 9 8 6 7 8 9
26 30 30 22 23 24 23 21 19 18 16 14 13 12 10 10 8 8 7 7 6 6 5 5 5 6 7 7 9 11 9 6 5 5 5 7 8 11 8 7 5 4 8
15 20 23 23 20 21 22 20 18 17 17 14 12 11 11 11 13 13 12 11 9 7 6 5 5 6 9 9 10 8 10 11 9 8 8 9 7 8 8 7 4 4 4
21 20 20 21 18 21 21 19 18 18 17 14 12 13 11 10 11 15 16 17 17 14 10 9 10 11 12 12 11 12 11 10 11 11 10 9 7 5 5 5 6 7 9
24 23 24 21 19 19 21 20 20 20 18 15 13 11 10 10 10 11 15 19 19 19 17 15 14 13 13 14 13 11 12 14 14 13 12 11 8 6 6 5 8 10 13
28 25 23 21 21 20 19 20 19 18 16 16 14 11 10 10 11 9 9 12 15 16 14 13 13 12 13 13 12 13 13 12 12 13 12 12 11 8 7 6 8 11 15
26 24 24 22 21 20 20 18 20 18 19 17 13 10 8 10 8 9 10 12 13 15 14 16 16 16 16 15 14 14 11 11 11 10 11 11 11 9 8 8 9 12 13
29 24 23 19 18 20 20 19 18 17 17 17 17 15 14 12 10 12 13 14 15 16 17 18 19 17 16 14 13 12 12 10 8 9 10 11 10 9 7 9 11 13 13
31 28 23 23 21 21 20 18 16 15 15 14 16 15 14 14 14 16 20 21 17 22 20 21 21 17 15 13 11 10 10 9 9 9 9 9 9 9 9 11 12 11 13
31 30 25 22 20 20 18 16 15 12 11 10 9 10 14 16 18 17 16 19 17 16 14 16 17 15 12 10 8 8 8 9 9 9 8 9 8 8 11 11 11 10 12
21 25 25 23 21 21 18 16 14 12 11 10 10 12 8 11 11 9 12 11 13 12 11 12 11 10 8 8 7 7 8 8 9 9 9 8 9 10 12 11 11 12 14
19 21 22 20 19 19 17 16 14 12 11 11 11 9 9 9 9 8 10 11 9 10 8 8 8 8 7 7 6 7 9 12 11 10 9 10 11 12 12 11 12 14 15
20 21 21 20 19 18 16 14 13 13 12 10 9 9 11 13 13 12 10 10 10 7 7 7 7 7 6 6 7 10 12 13 13 12 11 11 11 12 12 13 14 16 17
21 22 21 20 18 15 15 12 10 10 9 9 9 8 13 11 9 10 8 7 7 5 5 5 6 6 5 5 7 9 12 14 15 14 13 13 13 14 13 14 16 18 17
21 21 22 19 16 14 13 11 11 12 11 10 9 6 6 7 7 7 5 4 4 4 5 6 6 7 6 6 8 11 12 12 12 14 15 17 17 15 15 16 18 19 18
23 22 19 16 13 12 11 11 11 11 12 10 5 2 4 5 4 3 3 4 6 6 6 7 7 7 7 7 11 12 13 15 16 16 14 14 15 15 17 19 19 19 18
21 19 16 12 10 9 7 7 7 8 9 8 5 4 5 4 3 4 6 7 8 8 8 8 9 9 8 11 11 11 13 14 14 13 11 12 13 16 17 18 18 19 19
Wind_Direction
179 181 179 176 177 170 160 155 156 156 161 155 149 133 116 112 117 121 118 111 94 79 65 63 61 55 58 64 67 56 43 11 309 321 351 1 7 4 355 353 345 342 341
170 169 166 161 162 159 152 149 154 158 163 156 139 128 123 122 120 125 120 108 90 79 75 76 66 60 61 66 76 56 44 43 34 7 14 8 5 358 351 352 347 346 353
157 160 155 151 153 152 150 152 159 158 155 147 141 137 134 128 129 123 116 104 92 88 83 78 69 64 62 65 60 50 48 46 41 19 16 17 9 10 5 2 359 353 353
151 152 152 155 161 155 156 154 159 158 151 147 145 141 138 126 115 120 123 116 101 91 82 74 69 62 59 61 62 57 46 46 46 37 31 25 19 17 16 9 2 1 6
156 163 162 158 157 158 155 156 156 153 149 148 149 147 145 137 130 131 128 115 106 99 91 83 78 75 75 71 60 53 52 54 48 40 30 18 18 11 13 5 5 5 19
180 165 168 162 163 163 163 160 157 162 160 159 158 156 154 155 157 143 133 117 114 121 115 102 94 77 67 69 64 64 51 47 48 19 12 7 6 3 6 3 6 3 2
171 168 165 163 163 163 164 166 167 166 170 166 166 166 160 161 174 177 164 143 130 139 133 113 89 55 43 37 71 64 62 53 57 37 17 10 354 355 351 353 8 360 353
171 168 154 159 157 160 168 170 167 163 165 169 171 171 160 164 167 189 191 179 174 163 161 128 53 18 19 26 30 52 41 37 38 31 17 359 351 344 333 329 332 342 1
172 168 159 164 158 160 166 170 162 159 166 172 173 172 165 157 152 178 183 195 204 210 217 243 302 287 335 2 333 302 310 330 333 359 355 2 357 342 350 330 339 336 352
168 169 168 173 164 160 169 173 169 172 170 174 170 167 157 158 155 146 159 173 190 213 228 238 254 266 286 306 307 287 295 327 310 303 330 349 353 338 331 342 321 320 342
167 172 166 176 168 162 168 172 170 171 177 178 177 180 185 189 195 194 185 184 191 197 217 235 245 258 272 287 300 278 268 284 286 275 293 319 345 358 342 329 310 283 319
168 160 161 166 176 167 165 170 171 172 175 182 189 202 216 220 226 229 228 225 224 218 233 246 255 265 273 284 300 292 267 267 261 262 276 298 318 345 354 346 327 307 285
188 172 169 168 180 166 165 172 175 177 178 188 207 217 223 229 234 238 241 241 241 243 251 256 268 277 280 284 283 276 273 259 255 253 261 265 281 296 317 312 300 305 308
175 167 168 177 178 169 172 181 188 189 185 184 199 213 226 241 248 242 237 238 240 245 252 261 263 269 272 275 281 281 263 260 263 260 260 262 265 265 280 276 304 311 313
171 166 171 182 178 174 182 190 193 197 194 188 198 209 225 233 242 233 222 223 229 237 238 250 257 262 267 268 274 279 275 265 259 260 254 253 256 266 274 270 295 308 310
156 161 180 178 180 178 184 193 200 200 201 209 219 219 229 245 233 225 241 241 244 244 243 250 262 263 265 273 278 282 270 258 259 250 249 249 261 269 274 278 295 307 307
158 171 177 179 176 184 189 193 194 209 215 223 227 236 244 252 259 257 257 260 260 256 243 244 257 266 270 272 275 275 270 266 251 250 255 255 253 261 259 283 300 305 305
166 170 174 179 184 187 186 190 192 188 200 218 234 234 243 254 263 263 265 263 256 249 239 246 261 268 274 272 270 268 269 264 257 258 254 247 247 254 267 286 297 301 304
170 170 175 178 182 183 182 183 184 190 207 215 221 240 253 261 269 271 262 248 250 262 260 252 256 265 269 265 262 264 266 271 269 262 251 244 241 252 275 283 289 296 298
183 169 170 173 175 182 185 185 187 197 212 223 239 252 252 270 263 256 261 250 246 255 253 252 253 256 254 254 264 266 270 275 275 264 255 242 254 265 271 274 284 296 300
166 170 172 167 175 182 184 182 193 204 219 229 241 248 251 249 270 286 266 246 254 258 255 257 258 251 247 244 253 266 280 287 276 255 248 262 269 265 263 269 280 289 295
161 167 167 167 173 182 184 189 199 214 226 228 247 260 283 275 275 272 252 247 258 247 245 251 253 246 243 250 266 280 286 278 268 255 256 265 264 262 265 271 280 289 294
171 166 161 168 174 178 184 186 195 208 222 243 253 272 296 287 280 275 259 248 248 255 247 241 231 231 228 249 274 280 281 276 267 260 258 262 264 263 265 272 283 290 290
165 159 166 172 178 180 191 198 214 223 225 235 247 300 306 295 281 264 249 247 254 258 248 247 245 241 249 279 287 286 281 275 266 259 258 263 264 263 264 275 283 287 284
162 165 172 171 176 191 205 219 230 231 231 228 204 220 271 264 250 246 260 266 270 266 259 255 248 250 269 278 289 285 280 281 279 264 259 253 254 261 271 279 282 281 280
163 167 164 169 180 177 168 169 177 183 182 182 182 238 245 240 235 274 287 283 279 275 265 252 245 253 269 289 287 277 285 286 283 270 241 247 258 268 275 277 276 275 278